ARIANE 5 R/B, 26721

Orbit data source: Space-Track

ARIANE 5 R/B, 26721 is space debris in HEO originally from a launch on Thu, 08 Mar 2001 UTC launched from the French Guiana (FRGUI). Debris objects in space refer to the collection of defunct objects orbiting the Earth. Examples of debris include non-operational satellites, rocket bodies, and fragments generated from explosions, collisions, or faulty payload assembly.

Loading next visibility...
Identifier
26721, 2001-011C
Orbit
HEO
Country
Flag of FRFR
Related business
Manufacturer
Astrium
Mission
Spacecraft
Bus & Motor
EPS, AESTUS
Mass
1,190 kg wet, 1,190 kg dry
Launch date (UTC)
2001-03-08 (25 years ago)
Launch vehicle
Unknown
Launch site
French Guiana (FRGUI)
Object type
Payload
Rocket body
Debris
Shape & HBR
Cone + Cyl, 2.7 m
Radar Cross Section
25.858 m², Large (>1 m²)

Expand to show TLE details & history
Last TLE update: 7 hours ago

TLE from 7 hours ago
0 ARIANE 5 R/B
1 26721U 01011C   26125.06237884 -.00000065  00000-0 -33617-3 0  9991
2 26721   1.8256 313.1773 7053070 161.2208 227.7545  2.24568023206449
Epoch: 2026-05-05T01:29Z
TLE epoch observation values (Epoch: 2026-05-05T01:29:49.531Z)
Latitude
-0.20445°
Longitude
61.03826°
Altitude
33,490.04 km
Speed
1.953 km/s
True Right ascension
20h 25m 44s
True Declination
0° 12' 15"
Sunlit
Object was in daylight at epoch
Visualization orbit readout
Latitude
Unknown
Longitude
Unknown
Altitude
Unknown
Speed
Unknown
Apparent Right ascension
Unknown
Apparent Declination
Unknown
Sunlit
N/A
Visualization observer readout
Local Sidereal Time
16:38:08
Azimuth
Unknown
Elevation
Unknown
Doppler factor
Unknown
Orbital elements
Apogee altitude
35,635.901 km
Perigee altitude
882.282 km
Semi-major axis
24,637.229 km
Eccentricity
0.70531
Inclination
1.8256°
RAAN
313.1773°
Arg. of periapsis
161.2208°
True anomaly
192.04581°
Mean anomaly
227.7545°
Eccentric anomaly
208.4827°
Mean motion
0.56125 °/min
Orbital period
641.43 mins
BSTAR
-0.00033617
Loading maneuver chart data...
Computing Atmospheric mass density...
Loading historical data...
Loading historical data...
Loading historical data...
Loading historical data...
Loading historical data...
Loading historical data...
Loading historical data...
Other satellites on launch #11 in the year 2001 (2001-03-08 UTC)

Documentation

Showing up to 5 results
|